User: anonymous   Login
Location: Unspecified
(0.0000°N, 0.0000°E)
Time: 14:09:42
(UTC+00:00)
Language:

Tiros 1 - Orbit

View from above orbital plane
View from above orbital plane
View from above satellite
View from above satellite

Ground track
Ground track

The orbit data is extracted from the following two-line orbital elements,

1    29U 60002B   20221.98909127 -.00000154  00000-0  81552-5 0  9998
2    29  48.3800  60.6848 0023657  97.2940 263.0661 14.74365849226412
Epoch (UTC): 08 August 2020 23:44:17
Eccentricity: 0.0023657
inclination: 48.3800°
perigee height: 630 km
apogee height: 664 km
right ascension of ascending node: 60.6848°
argument of perigee: 97.2940°
revolutions per day: 14.74365849
mean anomaly at epoch: 263.0661°
orbit number at epoch: 22641

The dashed part of the orbit path shows where the satellite is in the earth's shadow,  

DLR